Location: Chittendens Corners
(41.2320°N, 81.4940°W)
Time: 08:20:22
(UTC+00:00)

Okean O Rocket - Pass Details

Date: 29 October 2020
Orbit: 623 x 644 km, 98.2° (Epoch: 28 November)

Event Time Altitude Azimuth Distance (km) Brightness Sun altitude
Rises 23:50:14 0° 200° (SSW) 2,907 5.3 -16.6°
Reaches altitude 10° 23:52:54 10° 217° (SW) 2,001 4.7 -17.1°
Maximum altitude 23:56:10 21° 266° (W) 1,431 4.4 -17.8°
Drops below altitude 10° 23:59:27 10° 315° (NW) 2,005 4.8 -18.4°
Sets 00:02:08 0° 332° (NNW) 2,915 5.4 -18.9°
